Flag for U.S.A. Weather past 2 weeks in San Bernardino, California, U.S.A.

Now
85 °F

Scattered clouds.


Feels Like: 85 °F
Forecast: 69 / 92 °F
Wind: 8 mph from Southwest

Location: Riverside Municipal Airport

Current Time: Jul 2, 2015 at 11:54:32 AM

Latest Report: Jul 2, 2015 at 10:53 AM


Visibility: 10 mi

Pressure: 29.94 "Hg

Humidity: 43%

Dew point: 60 °F

Location of San BernardinoLocation

Historic Weather in San Bernardino — Graph

°F

San Bernardino temperature yesterday

Maximum temperature yesterday: 91 °F (at 1:53 PM)
Minimum temperature yesterday: 71 °F (at 3:53 AM)
Average temperature yesterday: 80 °F

Past Weeks' High & Low Weather Summary

 TemperatureHumidityPressure
High101 °F (Jun 28, 3:53 PM)87% (Jun 18, 3:53 AM)29.97 "Hg (Jun 18, 3:53 AM)
Low63 °F (Jun 18, 3:53 AM)13% (Jun 18, 2:53 PM)29.75 "Hg (Jun 19, 5:53 PM)
Average80 °F45%29.85 "Hg
* Reported Jun 17 10:53 AM — Jul 2 10:53 AM, San Bernardino, Weather by CustomWeather, © 2015

Note: Actual official high and low records may vary slightly from our data, if they occured in-between our weather recording intervals... More about our weather records

Advertising

San Bernardino weather history for previous 24 hours

 ConditionsComfort  
Time TempWeatherWind HumidityBarometerVisibility
10:53 AM
Thu, Jul 2
85 °FScattered clouds.8 mph43%29.94 "Hg10 mi
9:53 AM82 °FPartly sunny.No wind48%29.94 "Hg10 mi
8:53 AM80 °FPartly sunny.6 mph51%29.94 "Hg10 mi
7:53 AM76 °FPartly sunny.No wind60%29.94 "Hg10 mi
6:53 AM74 °FPartly sunny.No wind64%29.93 "Hg10 mi
5:53 AM72 °FClear.No wind68%29.92 "Hg10 mi
4:53 AM72 °FOvercast.No wind68%29.92 "Hg10 mi
3:53 AM71 °FClear.No wind71%29.91 "Hg10 mi
2:53 AM73 °FClear.No wind66%29.90 "Hg10 mi
1:53 AM73 °FClear.No wind64%29.91 "Hg10 mi
12:53 AM74 °FClear.No wind62%29.92 "Hg10 mi
11:53 PM
Wed, Jul 1
74 °FClear.No wind62%29.91 "Hg10 mi
10:53 PM74 °FPassing clouds.3 mph60%29.92 "Hg10 mi
9:53 PM75 °FClear.3 mph55%29.91 "Hg10 mi
8:53 PM77 °FSunny.8 mph50%29.89 "Hg10 mi
7:53 PM80 °FSunny.8 mph47%29.87 "Hg10 mi
6:53 PM84 °FPartly sunny.7 mph40%29.85 "Hg10 mi
5:53 PM86 °FPartly sunny.9 mph36%29.83 "Hg10 mi
4:53 PM87 °FOvercast.10 mph32%29.83 "Hg10 mi
3:53 PM90 °FOvercast.12 mph37%29.82 "Hg10 mi
2:53 PM91 °FOvercast.8 mph33%29.84 "Hg10 mi
1:53 PM91 °FOvercast.7 mph28%29.85 "Hg9 mi
12:53 PM88 °FOvercast.5 mph34%29.84 "Hg10 mi
11:53 AM87 °FOvercast.3 mph36%29.88 "Hg10 mi
Weather by CustomWeather, © 2015

See weather overviewHow to use our weather pages